TIANWANG 1B (TW-1B)
1 40927U 15051C   19356.39390943  .00013593  00000-0  18274-3 0  9994
2 40927  97.1158  41.5113 0008740  58.2135  73.7487 15.57963410239048
TIANWANG 1A (TW-1A)
1 40928U 15051D   19356.35744395  .00002564  00000-0  62576-4 0  9996
2 40928  97.1286  23.4424 0012408 110.9058  10.6474 15.41697594237922
LAPAN A2
1 40931U 15052B   19355.69990151 +.00000696 +00000-0 +78011-5 0  9996
2 40931 005.9945 170.1254 0013457 269.3349 090.5434 14.76622513228797
LQSAT
1 40958U 15057A   19355.88386244 -.00000020 +00000-0 +44580-5 0  9999
2 40958 097.8784 059.8375 0018233 008.2480 351.9024 14.73100750226223
CHUBUSAT 2
1 41338U 16012B   19356.45951730  .00000274  00000-0  14541-4 0  9999
2 41338  31.0044  37.7795 0013704 153.2561 206.8783 15.00222384210980
CHUBUSAT 3
1 41339U 16012C   19356.47398860  .00000269  00000-0  14128-4 0  9996
2 41339  31.0129  35.5416 0013340 161.0052 199.1084 15.00392548210987
OUFTI-1
1 41458U 16025C   19355.82343121  .00001657  00000-0  86498-4 0  9991
2 41458  98.1001  92.1553 0166379  91.1468 270.8824 15.06327877200581
E-STAR-2
1 41459U 16025D   19356.48405586  .00002133  00000-0  11085-3 0  9998
2 41459  98.1003  92.3967 0167564  90.7123 271.3310 15.05936803200653
AAUSAT 4
1 41460U 16025E   19356.54826346  .00002477  00000-0  12498-3 0  9998
2 41460  98.0965  94.2109 0157091  81.2493 280.6466 15.08023966200823
NUSAT 1
1 41557U 16033B   19356.49473455  .00000930  00000-0  37140-4 0  9991
2 41557  97.4122  82.8887 0013643   4.7809 355.3558 15.27612450198606
BEESAT 4
1 41619U 16040W   19355.87307605 +.00001120 +00000-0 +49692-4 0  9999
2 41619 097.3456 054.4273 0012902 089.5384 270.7331 15.23553883182202
PRATHAM
1 41783U 16059A   19356.10731854  .00000024  00000-0  13744-4 0  9996
2 41783  98.0442  51.3295 0034171 155.7857 204.4960 14.63027463172800
ALSAT 1N
1 41789U 16059G   19356.41493551  .00000061  00000-0  20533-4 0  9990
2 41789  98.0469  54.0399 0029075 143.1304 217.1908 14.64284824172973
NAYIF 1
1 42017U 17008BX  19356.15369362  .00001245  00000-0  51226-4 0  9991
2 42017  97.3834  61.1525 0005098 220.0915 139.9948 15.25994713158352
MAX VALIER SAT
1 42778U 17036P   19356.16113390  .00000737  00000-0  34940-4 0  9994
2 42778  97.3315  49.4926 0010709 291.8188  68.1909 15.22311332138600
